FDX1247 KBOI-KPDX

Flight info

Callsign FDX1247
Flight time 0h 34m
Altitude 34000
Route SAILL BUEEL JOTBA HHOOD6
Aircraft A306/H-SDE3FGHIRWY/LB1

Departure

Time 2026-05-08 04:28
Airport Boise Air Terminal/Gowen Field (KBOI)

Arrival

Time 2026-05-08 05:03
Airport Portland International Airport (KPDX)
Time Latitude Longitude Altitude Speed Heading
2026-05-08 04:03 43.56726 -116.24395 2837 ft 0 kts 271°
2026-05-08 04:17 43.56725 -116.24391 2840 ft 2 kts 271°
2026-05-08 04:17 43.56724 -116.24366 2838 ft 3 kts 267°
2026-05-08 04:18 43.56727 -116.24339 2839 ft 3 kts 260°
2026-05-08 04:18 43.56730 -116.24312 2840 ft 3 kts 261°
2026-05-08 04:18 43.56733 -116.24284 2842 ft 3 kts 258°
2026-05-08 04:18 43.56737 -116.24264 2842 ft 1 kts 255°
2026-05-08 04:19 43.56738 -116.24258 2843 ft 0 kts 255°
2026-05-08 04:21 43.56729 -116.24269 2841 ft 6 kts 218°
2026-05-08 04:21 43.56643 -116.24271 2839 ft 15 kts 179°
2026-05-08 04:22 43.56583 -116.24164 2839 ft 19 kts 89°
2026-05-08 04:22 43.56592 -116.24002 2844 ft 15 kts 86°
2026-05-08 04:22 43.56601 -116.23857 2846 ft 19 kts 85°
2026-05-08 04:22 43.56611 -116.23689 2847 ft 16 kts 85°
2026-05-08 04:23 43.56620 -116.23562 2852 ft 13 kts 88°
2026-05-08 04:23 43.56575 -116.23389 2853 ft 22 kts 115°
2026-05-08 04:23 43.56513 -116.23210 2855 ft 19 kts 115°
2026-05-08 04:23 43.56450 -116.23030 2857 ft 23 kts 116°
2026-05-08 04:24 43.56388 -116.22846 2863 ft 19 kts 115°
2026-05-08 04:24 43.56333 -116.22683 2865 ft 18 kts 115°
2026-05-08 04:24 43.56279 -116.22527 2866 ft 21 kts 115°
2026-05-08 04:24 43.56207 -116.22315 2854 ft 25 kts 115°
2026-05-08 04:25 43.56138 -116.22114 2865 ft 22 kts 115°
2026-05-08 04:25 43.56075 -116.21929 2868 ft 20 kts 115°
2026-05-08 04:25 43.56024 -116.21779 2873 ft 16 kts 115°
2026-05-08 04:25 43.55980 -116.21649 2873 ft 14 kts 115°
2026-05-08 04:26 43.55941 -116.21533 2875 ft 17 kts 115°
2026-05-08 04:26 43.55878 -116.21349 2873 ft 22 kts 115°
2026-05-08 04:26 43.55814 -116.21162 2874 ft 20 kts 115°
2026-05-08 04:26 43.55803 -116.21014 2876 ft 11 kts 43°
2026-05-08 04:27 43.55857 -116.20982 2878 ft 6 kts 356°
2026-05-08 04:27 43.55886 -116.21008 2878 ft 5 kts 314°
2026-05-08 04:27 43.55911 -116.21068 2878 ft 10 kts 296°
2026-05-08 04:27 43.56000 -116.21333 2876 ft 62 kts 294°
2026-05-08 04:28 43.56281 -116.22148 2862 ft 124 kts 295°
2026-05-08 04:28 43.56725 -116.23444 2867 ft 174 kts 296°
2026-05-08 04:28 43.57265 -116.25011 3484 ft 184 kts 295°
2026-05-08 04:28 43.57800 -116.26637 4373 ft 183 kts 295°
2026-05-08 04:29 43.58287 -116.28176 5399 ft 167 kts 295°
2026-05-08 04:29 43.58723 -116.29608 6365 ft 161 kts 295°
2026-05-08 04:29 43.59154 -116.31143 6816 ft 186 kts 291°
2026-05-08 04:29 43.59556 -116.32963 7084 ft 216 kts 288°
2026-05-08 04:30 43.59947 -116.35108 7349 ft 245 kts 285°
2026-05-08 04:30 43.60334 -116.37484 7873 ft 260 kts 284°
2026-05-08 04:30 43.60717 -116.39941 8642 ft 263 kts 283°
2026-05-08 04:30 43.61105 -116.42416 9481 ft 264 kts 283°
2026-05-08 04:31 43.61503 -116.44900 10316 ft 265 kts 283°
2026-05-08 04:31 43.61911 -116.47390 11021 ft 269 kts 284°
2026-05-08 04:31 43.62334 -116.49925 11700 ft 273 kts 284°
2026-05-08 04:31 43.62765 -116.52492 12374 ft 277 kts 284°
2026-05-08 04:32 43.63199 -116.55061 13020 ft 280 kts 285°
2026-05-08 04:32 43.63643 -116.57694 13665 ft 283 kts 285°
2026-05-08 04:32 43.64090 -116.60353 14252 ft 286 kts 285°
2026-05-08 04:32 43.64543 -116.63050 14796 ft 290 kts 285°
2026-05-08 04:33 43.64999 -116.65778 15333 ft 293 kts 285°
2026-05-08 04:33 43.65459 -116.68536 15868 ft 296 kts 284°
2026-05-08 04:33 43.65923 -116.71324 16405 ft 299 kts 284°
2026-05-08 04:33 43.66391 -116.74141 16923 ft 302 kts 284°
2026-05-08 04:34 43.66863 -116.76985 17462 ft 305 kts 284°
2026-05-08 04:34 43.67339 -116.79857 17970 ft 308 kts 284°
2026-05-08 04:34 43.67818 -116.82752 18439 ft 311 kts 284°
2026-05-08 04:34 43.68301 -116.85679 18893 ft 314 kts 284°
2026-05-08 04:35 43.68781 -116.88590 19321 ft 316 kts 284°
2026-05-08 04:35 43.69268 -116.91556 19787 ft 318 kts 284°
2026-05-08 04:35 43.69760 -116.94548 20212 ft 320 kts 284°
2026-05-08 04:35 43.70254 -116.97562 20653 ft 323 kts 283°
2026-05-08 04:36 43.70752 -117.00599 21088 ft 325 kts 283°
2026-05-08 04:36 43.71252 -117.03659 21521 ft 328 kts 283°
2026-05-08 04:36 43.71754 -117.06737 21950 ft 330 kts 283°
2026-05-08 04:36 43.72355 -117.09807 22377 ft 332 kts 289°
2026-05-08 04:37 43.73153 -117.12811 22807 ft 334 kts 291°
2026-05-08 04:37 43.74029 -117.15795 23218 ft 337 kts 292°
2026-05-08 04:37 43.74957 -117.18787 23602 ft 339 kts 293°
2026-05-08 04:37 43.75909 -117.21778 23972 ft 340 kts 294°
2026-05-08 04:38 43.76866 -117.24767 24346 ft 341 kts 294°
2026-05-08 04:38 43.77826 -117.27769 24719 ft 342 kts 294°
2026-05-08 04:38 43.78771 -117.30746 25089 ft 342 kts 294°
2026-05-08 04:38 43.79722 -117.33760 25472 ft 343 kts 294°
2026-05-08 04:39 43.80668 -117.36772 25986 ft 339 kts 294°
2026-05-08 04:39 43.81600 -117.39751 26512 ft 335 kts 294°
2026-05-08 04:39 43.82521 -117.42700 27030 ft 332 kts 294°
2026-05-08 04:39 43.83434 -117.45626 27520 ft 329 kts 294°
2026-05-08 04:40 43.84338 -117.48528 28003 ft 327 kts 294°
2026-05-08 04:40 43.85238 -117.51417 28467 ft 326 kts 294°
2026-05-08 04:40 43.86134 -117.54296 28928 ft 325 kts 295°
2026-05-08 04:40 43.87026 -117.57161 29391 ft 324 kts 295°
2026-05-08 04:41 43.88029 -117.59940 29849 ft 322 kts 301°
2026-05-08 04:41 43.89190 -117.62583 30261 ft 320 kts 302°
2026-05-08 04:41 43.90360 -117.65154 30644 ft 319 kts 303°
2026-05-08 04:41 43.91550 -117.67744 31053 ft 317 kts 303°
2026-05-08 04:42 43.92734 -117.70314 31464 ft 315 kts 303°
2026-05-08 04:42 43.93913 -117.72869 31862 ft 314 kts 303°
2026-05-08 04:42 43.95088 -117.75418 32224 ft 313 kts 303°
2026-05-08 04:42 43.96257 -117.77956 32591 ft 312 kts 303°
2026-05-08 04:43 43.97426 -117.80494 32984 ft 311 kts 303°
2026-05-08 04:43 43.98589 -117.83023 33358 ft 310 kts 303°
2026-05-08 04:43 43.99749 -117.85544 33752 ft 309 kts 303°
2026-05-08 04:43 44.00893 -117.88035 33977 ft 312 kts 303°
2026-05-08 04:44 44.03291 -117.93261 34007 ft 331 kts 303°
2026-05-08 04:44 44.05836 -117.98816 34007 ft 350 kts 303°
2026-05-08 04:45 44.08514 -118.04675 34017 ft 367 kts 303°
2026-05-08 04:45 44.11279 -118.10738 34017 ft 380 kts 303°
2026-05-08 04:46 44.14150 -118.17046 34025 ft 390 kts 303°
2026-05-08 04:46 44.17063 -118.23463 34024 ft 394 kts 303°
2026-05-08 04:47 44.23968 -118.38730 34034 ft 394 kts 303°
2026-05-08 04:47 44.35554 -118.64528 34049 ft 396 kts 302°
2026-05-08 04:48 44.47199 -118.90681 34032 ft 397 kts 302°
2026-05-08 04:48 44.58830 -119.17056 34023 ft 399 kts 302°
2026-05-08 04:49 44.70411 -119.43555 34029 ft 398 kts 301°
2026-05-08 04:49 44.81834 -119.69938 34019 ft 398 kts 301°
2026-05-08 04:50 44.93301 -119.96674 34019 ft 398 kts 301°
2026-05-08 04:50 44.99145 -120.10392 34017 ft 416 kts 301°
2026-05-08 04:50 45.05156 -120.24576 34019 ft 415 kts 301°
2026-05-08 04:51 45.10909 -120.38220 33229 ft 406 kts 301°
2026-05-08 04:51 45.16879 -120.52489 29075 ft 425 kts 298°
2026-05-08 04:51 45.22345 -120.66610 26909 ft 394 kts 298°
2026-05-08 04:51 45.25747 -120.75457 25587 ft 380 kts 297°
2026-05-08 04:52 45.30707 -120.88397 23573 ft 367 kts 297°
2026-05-08 04:52 45.36995 -121.04860 20777 ft 349 kts 297°
2026-05-08 04:52 45.40488 -121.17438 18788 ft 338 kts 288°
2026-05-08 04:52 45.42461 -121.25937 17367 ft 331 kts 288°
2026-05-08 04:53 45.46177 -121.41986 14874 ft 314 kts 288°
2026-05-08 04:53 45.48875 -121.53686 12921 ft 306 kts 288°
2026-05-08 04:53 45.50604 -121.61246 11739 ft 301 kts 288°
2026-05-08 04:53 45.52987 -121.72595 10033 ft 299 kts 277°
2026-05-08 04:54 45.53486 -121.84170 8210 ft 286 kts 273°
2026-05-08 04:54 45.53836 -121.92625 6913 ft 279 kts 273°
2026-05-08 04:54 45.53971 -121.96286 6329 ft 279 kts 272°
2026-05-08 04:54 45.54040 -121.98151 6031 ft 278 kts 273°
2026-05-08 04:55 45.54186 -122.01790 5421 ft 278 kts 272°
2026-05-08 04:55 45.54209 -122.04539 4966 ft 278 kts 265°
2026-05-08 04:55 45.54076 -122.06360 4659 ft 279 kts 263°
2026-05-08 04:55 45.53809 -122.09099 4204 ft 279 kts 262°
2026-05-08 04:56 45.53530 -122.11834 3767 ft 279 kts 262°
2026-05-08 04:56 45.53257 -122.14529 4186 ft 275 kts 262°
2026-05-08 04:56 45.52985 -122.17220 4778 ft 271 kts 262°
2026-05-08 04:56 45.52723 -122.19817 4691 ft 257 kts 262°
2026-05-08 04:57 45.52478 -122.22255 4464 ft 240 kts 262°
2026-05-08 04:57 45.52248 -122.24555 4144 ft 230 kts 262°
2026-05-08 04:57 45.52024 -122.26797 3708 ft 226 kts 262°
2026-05-08 04:57 45.51807 -122.28962 3104 ft 222 kts 262°
2026-05-08 04:58 45.51587 -122.31149 2447 ft 224 kts 262°
2026-05-08 04:58 45.51380 -122.33353 2127 ft 225 kts 264°
2026-05-08 04:58 45.51282 -122.35587 2070 ft 225 kts 269°
2026-05-08 04:58 45.51346 -122.37745 2074 ft 204 kts 275°
2026-05-08 04:59 45.51536 -122.39596 2098 ft 178 kts 281°
2026-05-08 04:59 45.51814 -122.41274 2086 ft 172 kts 285°
2026-05-08 04:59 45.52160 -122.42903 2080 ft 172 kts 288°
2026-05-08 04:59 45.52645 -122.44458 2075 ft 172 kts 297°
2026-05-08 05:00 45.53208 -122.45943 2004 ft 173 kts 297°
2026-05-08 05:00 45.53788 -122.47449 1768 ft 167 kts 298°
2026-05-08 05:00 45.54322 -122.48814 1556 ft 153 kts 298°
2026-05-08 05:00 45.54808 -122.50063 1343 ft 135 kts 298°
2026-05-08 05:01 45.55247 -122.51192 1182 ft 127 kts 298°
2026-05-08 05:01 45.55675 -122.52294 1038 ft 127 kts 299°
2026-05-08 05:01 45.56104 -122.53405 870 ft 128 kts 298°
2026-05-08 05:01 45.56527 -122.54522 698 ft 127 kts 300°
2026-05-08 05:02 45.56956 -122.55596 533 ft 123 kts 301°
2026-05-08 05:02 45.57368 -122.56654 356 ft 121 kts 298°
2026-05-08 05:02 45.57777 -122.57706 210 ft 124 kts 300°
2026-05-08 05:02 45.58189 -122.58757 54 ft 122 kts 300°
2026-05-08 05:03 45.58566 -122.59715 44 ft 91 kts 299°
2026-05-08 05:03 45.58794 -122.60300 38 ft 44 kts 298°
2026-05-08 05:03 45.58846 -122.60599 37 ft 24 kts 230°
2026-05-08 05:03 45.58822 -122.60635 37 ft 0 kts 226°
2026-05-08 05:04 45.58807 -122.60658 36 ft 9 kts 226°
2026-05-08 05:04 45.58736 -122.60760 34 ft 16 kts 224°
2026-05-08 05:04 45.58660 -122.60868 36 ft 15 kts 225°
2026-05-08 05:04 45.58586 -122.60973 35 ft 15 kts 225°
2026-05-08 05:05 45.58516 -122.61071 38 ft 13 kts 225°
2026-05-08 05:05 45.58456 -122.61156 39 ft 12 kts 225°
2026-05-08 05:05 45.58396 -122.61242 39 ft 12 kts 225°
2026-05-08 05:05 45.58338 -122.61324 39 ft 12 kts 225°
2026-05-08 05:06 45.58265 -122.61329 36 ft 13 kts 140°
2026-05-08 05:06 45.58202 -122.61244 35 ft 12 kts 135°
2026-05-08 05:06 45.58146 -122.61163 35 ft 11 kts 134°
2026-05-08 05:06 45.58091 -122.61083 34 ft 11 kts 134°
2026-05-08 05:07 45.58030 -122.60996 33 ft 11 kts 135°
2026-05-08 05:07 45.57989 -122.60958 34 ft 4 kts 184°
2026-05-08 05:07 45.57953 -122.60995 34 ft 5 kts 223°
2026-05-08 05:07 45.57939 -122.61014 35 ft 1 kts 224°
2026-05-08 05:08 45.57937 -122.61017 35 ft 0 kts 224°